Location: Adrasan
(36.3319°N, 30.4314°E)
Time: 02:32:52
(UTC+00:00)

COSMO-SKYMED 1 - Pass Details

Date: 20 October 2025
Orbit: 580 x 582 km, 97.9° (Epoch: 13 November)

Event Time Altitude Azimuth Distance (km) Brightness Sun altitude
Rises 16:21:39 0° 9° (N) 2,806 5.8 -14.0°
Reaches altitude 10° 16:23:49 10° 7° (N) 1,902 5.0 -14.4°
Maximum altitude 16:27:54 70° 285° (WNW) 620 2.7 -15.3°
Drops below altitude 10° 16:31:58 10° 201° (SSW) 1,887 5.3 -16.1°
Sets 16:34:07 0° 199° (SSW) 2,781 6.2 -16.5°
